Change the Weather History Date:

Tuesday, August 27, 2013

  Actual Average Record
Temperature  
Mean Temperature 86 °F -  
Max Temperature 93 °F 85 °F 107 °F (1973)
Min Temperature 78 °F 58 °F 44 °F (1964)
Cooling Degree Days 20    
Growing Degree Days 36 (Base 50)    
Moisture  
Dew Point 70 °F    
Average Humidity 62    
Maximum Humidity 89    
Minimum Humidity 52    
Precipitation  
Precipitation 0.00 in - - ()
Sea Level Pressure  
Sea Level Pressure 29.85 in    
Wind  
Wind Speed 11 mph (SSW)    
Max Wind Speed 18 mph    
Max Gust Speed 25 mph    
Visibility 10 miles    
Events      
Averages and records for this station are not official NWS values.
T = Trace of Precipitation, MM = Missing Value Source: NWS Daily Summary

Daily Weather History Graph

Daily Weather History Graph

Search for Another Location

Airport or City:

Trip Planner

Search our weather history database for the weather conditions in past years. The results will help you decide how hot, cold, wet, or windy it might be!

Date:

Astronomy

Aug. 27, 2013 Rise Set
Actual Time 6:48 AM CDT 8:12 PM CDT
Civil Twilight 6:19 AM CDT 8:41 PM CDT
Nautical Twilight 5:43 AM CDT 9:17 PM CDT
Astronomical Twilight 5:06 AM CDT 9:54 PM CDT
Moon 11:55 PM CDT (8/27) 1:59 PM CDT (8/27)
Length of Visible Light 14h 22m
Length of Day
13h 23m
Waning Gibbous, 57% of the Moon is Illuminated
Aug 27
Waning Gibbous
Aug 28
Last Quarter
Sep 5
New
Sep 12
First Quarter
Sep 19
Full

Hourly Weather History & Observations

Time (CDT) Temp. Heat Index Dew Point Humidity Pressure Visibility Wind Dir Wind Speed Gust Speed Precip Events Conditions
12:15 AM 84.2 °F 87.3 °F 68.0 °F 58% 29.84 in 10.0 mi SSW 13.8 mph - N/A   Clear
12:35 AM 82.4 °F 85.4 °F 68.0 °F 62% 29.84 in 10.0 mi SSW 15.0 mph 21.9 mph N/A   Clear
12:55 AM 82.4 °F 84.6 °F 66.2 °F 58% 29.84 in 10.0 mi SSW 16.1 mph 21.9 mph N/A   Clear
1:15 AM 82.4 °F 84.6 °F 66.2 °F 58% 29.84 in 10.0 mi SSW 16.1 mph 25.3 mph N/A   Clear
1:35 AM 82.4 °F 84.6 °F 66.2 °F 58% 29.84 in 10.0 mi SSW 18.4 mph 25.3 mph N/A   Clear
1:55 AM 82.4 °F 84.6 °F 66.2 °F 58% 29.83 in 10.0 mi SSW 18.4 mph 21.9 mph N/A   Clear
2:15 AM 82.4 °F 84.6 °F 66.2 °F 58% 29.83 in 10.0 mi SSW 13.8 mph 23.0 mph N/A   Clear
2:35 AM 80.6 °F 82.7 °F 66.2 °F 61% 29.83 in 10.0 mi SSW 15.0 mph - N/A   Clear
2:55 AM 80.6 °F 82.7 °F 66.2 °F 61% 29.82 in 10.0 mi SSW 16.1 mph 20.7 mph N/A   Clear
3:15 AM 80.6 °F 82.3 °F 64.4 °F 58% 29.83 in 10.0 mi SSW 16.1 mph 21.9 mph N/A   Clear
3:35 AM 80.6 °F 82.3 °F 64.4 °F 58% 29.83 in 10.0 mi SSW 15.0 mph 21.9 mph N/A   Clear
3:55 AM 80.6 °F 82.3 °F 64.4 °F 58% 29.83 in 10.0 mi SSW 15.0 mph 21.9 mph N/A   Clear
4:15 AM 80.6 °F 82.3 °F 64.4 °F 58% 29.83 in 10.0 mi SW 13.8 mph 19.6 mph N/A   Clear
4:35 AM 78.8 °F - 64.4 °F 61% 29.82 in 10.0 mi SW 13.8 mph 18.4 mph N/A   Clear
4:55 AM 80.6 °F 82.3 °F 64.4 °F 58% 29.82 in 10.0 mi SW 13.8 mph - N/A   Clear
5:15 AM 80.6 °F 82.3 °F 64.4 °F 58% 29.82 in 10.0 mi SSW 12.7 mph - N/A   Clear
5:35 AM 78.8 °F - 64.4 °F 61% 29.82 in 10.0 mi SSW 12.7 mph - N/A   Clear
5:55 AM 78.8 °F - 64.4 °F 61% 29.82 in 10.0 mi SSW 11.5 mph - N/A   Clear
6:15 AM 78.8 °F - 64.4 °F 61% 29.82 in 10.0 mi SSW 10.4 mph - N/A   Clear
6:35 AM 78.8 °F - 64.4 °F 61% 29.83 in 10.0 mi SSW 11.5 mph - N/A   Clear
6:55 AM 78.8 °F - 64.4 °F 61% 29.84 in 10.0 mi SSW 10.4 mph 16.1 mph N/A   Clear
7:15 AM 78.8 °F - 64.4 °F 61% 29.84 in 10.0 mi SSW 10.4 mph - N/A   Clear
7:35 AM 78.8 °F - 64.4 °F 61% 29.84 in 10.0 mi SW 12.7 mph - N/A   Clear
7:55 AM 78.8 °F - 64.4 °F 61% 29.85 in 10.0 mi WSW 8.1 mph - N/A   Clear
8:15 AM 78.8 °F - 66.2 °F 65% 29.86 in 10.0 mi West 3.5 mph - N/A   Clear
8:35 AM 78.8 °F - 66.2 °F 65% 29.86 in 10.0 mi WSW 5.8 mph - N/A   Clear
8:55 AM 78.8 °F - 66.2 °F 65% 29.86 in 10.0 mi SW 8.1 mph - N/A   Clear
9:15 AM 80.6 °F 82.7 °F 66.2 °F 61% 29.86 in 10.0 mi SW 9.2 mph - N/A   Clear
9:35 AM 80.6 °F 82.7 °F 66.2 °F 61% 29.86 in 10.0 mi SW 9.2 mph - N/A   Clear
9:55 AM 80.6 °F 82.7 °F 66.2 °F 61% 29.86 in 10.0 mi WSW 11.5 mph - N/A   Clear
10:15 AM 82.4 °F 84.6 °F 66.2 °F 58% 29.86 in 10.0 mi WSW 9.2 mph - N/A   Clear
10:35 AM 82.4 °F 84.6 °F 66.2 °F 58% 29.87 in 10.0 mi WSW 10.4 mph - N/A   Clear
10:55 AM 84.2 °F 86.6 °F 66.2 °F 55% 29.87 in 10.0 mi WSW 12.7 mph - N/A   Clear
11:15 AM 84.2 °F 87.3 °F 68.0 °F 58% 29.87 in 10.0 mi WSW 11.5 mph - N/A   Clear
11:35 AM 84.2 °F 88.4 °F 69.8 °F 62% 29.88 in 10.0 mi SW 9.2 mph - N/A   Clear
11:55 AM 84.2 °F 87.3 °F 68.0 °F 58% 29.88 in 10.0 mi SW 8.1 mph - N/A   Clear
12:15 PM 86.0 °F 90.4 °F 69.8 °F 58% 29.88 in 10.0 mi SSW 10.4 mph - N/A   Clear
12:35 PM 87.8 °F 92.6 °F 69.8 °F 55% 29.88 in 10.0 mi WSW 6.9 mph - N/A   Clear
12:55 PM 87.8 °F 93.8 °F 71.6 °F 58% 29.88 in 10.0 mi WSW 8.1 mph - N/A   Clear
1:15 PM 87.8 °F 93.8 °F 71.6 °F 58% 29.87 in 10.0 mi SW 8.1 mph - N/A   Clear
1:35 PM 89.6 °F 96.2 °F 71.6 °F 55% 29.87 in 10.0 mi SW 8.1 mph - N/A   Clear
1:55 PM 87.8 °F 93.8 °F 71.6 °F 58% 29.87 in 10.0 mi WSW 6.9 mph - N/A   Clear
2:15 PM 89.6 °F 96.2 °F 71.6 °F 55% 29.87 in 10.0 mi SW 5.8 mph - N/A   Clear
2:35 PM 89.6 °F 98.2 °F 73.4 °F 59% 29.86 in 10.0 mi WSW 8.1 mph - N/A   Clear
2:55 PM 91.4 °F 100.1 °F 73.4 °F 55% 29.87 in 10.0 mi WSW 8.1 mph - N/A   Clear
3:15 PM 91.4 °F 100.1 °F 73.4 °F 55% 29.86 in 10.0 mi SW 6.9 mph - N/A   Clear
3:35 PM 91.4 °F 100.1 °F 73.4 °F 55% 29.86 in 10.0 mi WSW 5.8 mph - N/A   Clear
3:55 PM 91.4 °F 100.1 °F 73.4 °F 55% 29.86 in 10.0 mi SW 5.8 mph - N/A   Clear
4:15 PM 93.2 °F 102.4 °F 73.4 °F 52% 29.85 in 10.0 mi Calm Calm - N/A   Clear
4:35 PM 93.2 °F 105.0 °F 75.2 °F 56% 29.86 in 10.0 mi South 5.8 mph - N/A   Clear
4:55 PM 93.2 °F 105.0 °F 75.2 °F 56% 29.85 in 10.0 mi SSW 8.1 mph - N/A   Clear
5:15 PM 93.2 °F 102.4 °F 73.4 °F 52% 29.84 in 10.0 mi South 8.1 mph - N/A   Clear
5:35 PM 93.2 °F 105.0 °F 75.2 °F 56% 29.85 in 10.0 mi SW 8.1 mph - N/A   Clear
5:55 PM 93.2 °F 105.0 °F 75.2 °F 56% 29.85 in 10.0 mi SSW 9.2 mph - N/A   Clear
6:15 PM 93.2 °F 105.0 °F 75.2 °F 56% 29.85 in 10.0 mi SSW 8.1 mph - N/A   Clear
6:35 PM 91.4 °F 105.1 °F 77.0 °F 63% 29.84 in 10.0 mi South 11.5 mph - N/A   Clear
6:55 PM 91.4 °F 102.5 °F 75.2 °F 59% 29.84 in 10.0 mi South 8.1 mph - N/A   Clear
7:15 PM 91.4 °F 105.1 °F 77.0 °F 63% 29.84 in 10.0 mi South 9.2 mph - N/A   Clear
7:35 PM 89.6 °F 99.8 °F 75.2 °F 62% 29.84 in 10.0 mi South 6.9 mph - N/A   Clear
7:55 PM 89.6 °F 99.8 °F 75.2 °F 62% 29.85 in 10.0 mi South 5.8 mph - N/A   Clear
8:15 PM 87.8 °F 97.6 °F 75.2 °F 66% 29.85 in 10.0 mi SE 4.6 mph - N/A   Clear
8:35 PM 84.2 °F 92.3 °F 75.2 °F 74% 29.85 in 10.0 mi SSE 5.8 mph - N/A   Clear
8:55 PM 84.2 °F 92.3 °F 75.2 °F 74% 29.86 in 10.0 mi SSE 4.6 mph - N/A   Clear
9:15 PM 84.2 °F 92.3 °F 75.2 °F 74% 29.86 in 9.0 mi ESE 4.6 mph - N/A   Clear
9:35 PM 82.4 °F 89.5 °F 75.2 °F 79% 29.87 in 10.0 mi East 3.5 mph - N/A   Clear
9:55 PM 80.6 °F 86.2 °F 75.2 °F 84% 29.88 in 10.0 mi East 5.8 mph - N/A   Clear
10:15 PM 82.4 °F 89.5 °F 75.2 °F 79% 29.88 in 10.0 mi East 4.6 mph - N/A   Clear
10:35 PM 80.6 °F 86.2 °F 75.2 °F 84% 29.88 in 8.0 mi ESE 5.8 mph - N/A   Clear
10:55 PM 80.6 °F 86.2 °F 75.2 °F 84% 29.89 in 10.0 mi ESE 3.5 mph - N/A   Clear
11:15 PM 80.6 °F 86.2 °F 75.2 °F 84% 29.89 in 10.0 mi East 5.8 mph - N/A   Clear
11:35 PM 78.8 °F - 75.2 °F 89% 29.89 in 10.0 mi East 3.5 mph - N/A   Clear
11:55 PM 78.8 °F - 73.4 °F 83% 29.88 in 2.5 mi Calm Calm - N/A   Clear